"Pseudo-MPEC" for MAd0826

Created 2026 Jan 11 20:35:07 UT using Find_Orb

Click here for an explanation of pseudo-MPECs

 
 Astrometry: 
     MAd0826* C2025 12 29.69390007 40 23.023+21 28 51.97   ~1AFo 17.88gWNEOCPO18
     MAd0826  C2025 12 29.74990707 40 21.271+21 28 57.56   ~1AFo 17.40rWNEOCPO18
     MAd0826* C2026 01 06.71460607 36 09.716+21 42 01.30   ~1AFo 17.92gWNEOCPO18
     MAd0826  C2026 01 06.74287007 36 08.779+21 42 04.09   ~1AFo 17.36rWNEOCPO18
     MAd0826* C2026 01 09.64414307 34 34.018+21 46 50.51   ~1AFo 17.91gWNEOCPO18
     MAd0826  C2026 01 09.67815907 34 32.879+21 46 53.86   ~1AFo 17.42rWNEOCPO18
     MAd0826 KC2026 01 10.76676307 33 57.137+21 48 39.85   ~1AIo 17.2 GWNEOCPJ95
     MAd0826 KC2026 01 10.77074707 33 57.012+21 48 40.00   ~1AIo 17.3 GWNEOCPJ95
     MAd0826 KC2026 01 10.77476107 33 56.894+21 48 40.54   ~1AIo 17.1 GWNEOCPJ95
     MAd0826 KC2026 01 10.80888007 33 55.74 +21 48 44.5    ~1AK5 17.4 GVNEOCPL01
     MAd0826 KC2026 01 10.81014807 33 55.69 +21 48 44.8    ~1AK5 17.2 GVNEOCPL01
     MAd0826 KC2026 01 10.81141307 33 55.64 +21 48 44.9    ~1AK5 17.3 GVNEOCPL01
     MAd0826 KC2026 01 10.81267807 33 55.60 +21 48 45.0    ~1AK5 17.3 GVNEOCPL01
     MAd0826 KC2026 01 10.81394507 33 55.55 +21 48 45.2    ~1AK5 17.3 GVNEOCPL01
     MAd0826 KC2026 01 10.81521107 33 55.52 +21 48 45.3    ~1AK5 17.3 GVNEOCPL01
     MAd0826 KB2026 01 10.87161407 33 53.64 +21 48 51.3    ~1ALo 17.2 GXNEOCP958
     MAd0826 KB2026 01 10.87626207 33 53.465+21 48 51.28   ~1ALK 17.27GXNEOCP126
     MAd0826 KB2026 01 10.87758707 33 53.439+21 48 51.09   ~1ALK 17.32GXNEOCP126
     MAd0826 KB2026 01 10.87872207 33 53.414+21 48 51.91   ~1ALK 17.29GXNEOCP126
     MAd0826 KB2026 01 10.88013907 33 53.37 +21 48 51.8    ~1ALo 17.2 GXNEOCP958
     MAd0826 KB2026 01 10.88377 07 33 53.26 +21 48 52.1    ~1AMZ 17.3 GXNEOCPM54
     MAd0826 KB2026 01 10.88474507 33 53.203+21 48 52.10   ~1ALo 17.2 GXNEOCPB72
     MAd0826 KB2026 01 10.88759307 33 53.090+21 48 52.35   ~1ALo 17.3 GXNEOCPB72
     MAd0826 KB2026 01 10.88867607 33 53.10 +21 48 52.8    ~1ALo 17.3 GXNEOCP958
     MAd0826 KB2026 01 10.89044007 33 52.995+21 48 52.66   ~1ALo 17.3 GXNEOCPB72
     MAd0826 KB2026 01 10.89774 07 33 52.78 +21 48 53.7    ~1AMZ 17.5 GXNEOCPM54
     MAd0826 KB2026 01 10.91172 07 33 52.31 +21 48 54.9    ~1AMZ 17.2 GXNEOCPM54
     MAd0826 KC2026 01 10.97027807 33 50.323+21 49 00.70   ~1ANo 17.3 VZNEOCPM38
     MAd0826 KC2026 01 10.97730307 33 50.074+21 49 01.27   ~1ANo 17.6 VZNEOCPM38
     MAd0826  B2026 01 11.02015007 33 48.761+21 49 05.74   ~1B1Z 17.4 GWNEOCPX04
     MAd0826 KC2026 01 11.02056 07 33 48.64 +21 49 05.9    ~1B0o 17.4 VZNEOCPC82
     MAd0826 2C2026 01 11.02417 07 33 48.57 +21 49 06.6    ~1B2Z 17.4 GVNEOCPZ21
     MAd0826 KC2026 01 11.02536 07 33 48.47 +21 49 06.4    ~1B0o 17.6 VZNEOCPC82
     MAd0826 2C2026 01 11.02768 07 33 48.46 +21 49 06.9    ~1B2Z 17.5 GVNEOCPZ21
     MAd0826 KC2026 01 11.02897 07 33 48.34 +21 49 06.5    ~1B15 17.6 VZNEOCPC82
     MAd0826  B2026 01 11.02998807 33 48.413+21 49 06.82   ~1B1Z 17.4 GWNEOCPX04
     MAd0826 2C2026 01 11.03118 07 33 48.33 +21 49 07.3    ~1B2Z 17.4 GVNEOCPZ21
     MAd0826 KC2026 01 11.03137 07 33 48.26 +21 49 06.8    ~1B15 17.7 VZNEOCPC82
     MAd0826  B2026 01 11.03917807 33 48.130+21 49 06.02   ~1B1Z 17.6 GWNEOCPX04
     MAd0826  C2026 01 11.17158 07 33 43.80 +21 49 20.5    ~1B55 17.3 R NEOCP718
     MAd0826  C2026 01 11.18303 07 33 43.40 +21 49 21.1    ~1B55 17.1 R NEOCP718
     MAd0826  C2026 01 11.19319 07 33 43.02 +21 49 23.0    ~1B55 17.2 R NEOCP718
     MAd0826 KB2026 01 11.19472207 33 43.018+21 49 22.91   ~1B7o 17.50GWNEOCPV21
     MAd0826 KB2026 01 11.20967607 33 42.509+21 49 24.46   ~1B7o 17.21GWNEOCPV21
     MAd0826 KB2026 01 11.22464107 33 42.012+21 49 25.82   ~1B7o 17.45GWNEOCPV21
     MAd0826 KB2026 01 11.23958307 33 41.506+21 49 27.41   ~1B7o 17.58GWNEOCPV21
     MAd0826 KB2026 01 11.25452507 33 41.006+21 49 29.06   ~1B7o 17.57GWNEOCPV21
     MAd0826 KB2026 01 11.54741907 33 31.375+21 49 57.25   ~1BDo 17.5 GXNEOCPQ10
     MAd0826 KB2026 01 11.55072807 33 31.306+21 49 56.89   ~1BDo 16.7 GXNEOCPQ10
     MAd0826 KB2026 01 11.55421207 33 31.106+21 49 58.55   ~1BDo       XNEOCPQ10
     MAd0826 KB2026 01 11.58669107 33 30.123+21 50 01.11   ~1BG5 17.3 GXNEOCPN56
     MAd0826 KB2026 01 11.60294607 33 29.588+21 50 02.82   ~1BG5 17.3 GXNEOCPN56
     MAd0826 KB2026 01 11.61922907 33 29.051+21 50 04.55   ~1BG5 17.3 GXNEOCPN56
     MAd0826  C2026 01 11.63848407 33 28.403+21 50 06.27   ~1BGK        NEOCPN51
     MAd0826  C2026 01 11.64561307 33 28.161+21 50 06.99   ~1BGK        NEOCPN51
     MAd0826  C2026 01 11.65542807 33 27.877+21 50 08.00   ~1BGK        NEOCPN51
     MAd0826 KC2026 01 11.68930 07 33 26.75 +21 50 11.6    ~1BH5 17.4 GVNEOCPC97
     MAd0826 KC2026 01 11.69190 07 33 26.64 +21 50 11.7    ~1BH5 16.6 GVNEOCPC97
     MAd0826 KC2026 01 11.69494 07 33 26.56 +21 50 12.1    ~1BH5 18.1 GVNEOCPC97
     MAd0826 KB2026 01 11.74642 07 33 24.84 +21 50 16.1    ~1BIo 17.9 GXNEOCPR95
     MAd0826 KB2026 01 11.75162 07 33 24.68 +21 50 16.7    ~1BIo 18.2 GXNEOCPR95
     MAd0826 KB2026 01 11.75677 07 33 24.51 +21 50 17.2    ~1BIo 17.5 GXNEOCPR95
     MAd0826 0C2026 01 11.79299807 33 23.318+21 50 21.09   ~1BKZ 17.4 GXNEOCPR59
     MAd0826 KB2026 01 11.79913607 33 23.105+21 50 21.44   ~1BK5 17.9 GXNEOCPD43
     MAd0826 0C2026 01 11.80774407 33 22.842+21 50 22.52   ~1BKZ 17.4 GXNEOCPR59
     MAd0826 KB2026 01 11.80983707 33 22.752+21 50 22.70   ~1BK5 17.5 GXNEOCPD43
     MAd0826 0C2026 01 11.82244107 33 22.362+21 50 24.00   ~1BKZ 17.4 GXNEOCPR59
     MAd0826 KC2026 01 11.82926407 33 22.078+21 50 24.61   ~1BKK 16.86GXNEOCPM26
     MAd0826 KC2026 01 11.83066907 33 22.037+21 50 25.04   ~1BKK 16.74GXNEOCPM26
     MAd0826 KC2026 01 11.83225107 33 21.955+21 50 24.58   ~1BKK 17.38GXNEOCPM26

Station data:
(126) Monte Viseggi  (N44.132565 E9.790150)  Italy.
   Observers L. Sannino, A. Mancuso, S. Mercanti, D. Agnetti. Measurers L.
   Sannino, A. Mancuso. 0.41-m f/5.3 reflector + CCD.
(718) Tooele  (N40.641406 W112.295800)  US/Utah.  Observer P. Wiggins. 0.35-m
   f/5.5 Schmidt-Cassegrain + CCD.
(958) Observatoire de Dax  (N43.693381 W1.030530)  France.  Observer P.
   Dupouy. 0.32-m Schmidt-Cassegrain.
(B72) Soerth  (N50.698827 E7.681050)  Germany.  Observer B. Koch.
   0.36-m f/7.6 Schmidt-Cassegrain + CCD + f/7.6 focal reducer.
(C82) Osservatorio Astronomico Nastro Verde, Sorrento  (N40.618774
   E14.357590)  Italy.  Observer N. Ruocco. 0.35-m f/6.3 Schmidt-Cassegrain +
   CCD.
(C97) Al-Fulaij Observatory, Oman  (N23.629466 E57.976330)  Oman.  Observers
   S. Al-Alawi, Y. Al-Majrafi, M. Al- Hadi, M. Al-tobi. 0.61-m f/7.84
   Ritchey-Chrétien + CCD.
(D43) 45th Parallel Observatory, Pino Torinese  (N45.044579 E7.770390)  Italy.
     Observer V. della Vecchia. 0.25-m f/5.6 Ritchey-Chrétien + CMO.
(J95) Great Shefford  (N51.474969 W1.447003)  UK/England.  Observer P.
   Birtwhistle. 0.41-m f/6.3 Schmidt-Cassegrain + CCD.
(L01) Višnjan Observatory, Tičan  (N45.290897 E13.749300)  Croatia.
   Observers K. Korlević, L. Poropat. Measurer K. Korlevic. 1.0-m f/2.9
   reflector + CCD.
(M26) Zen Observatory, Scandicci  (N43.774583 E11.134940)  Italy.  Observers
   M. Lombardo, K. Lombardo. Measurer M. Lombardo. 0.30-m f/8
   Ritchey-Chrétien + CCD.
(M38) Harsona Observatory, Nyiregyhaza  (N47.945815 E21.767190).  Observer T.
   Elek. 0.20-m f/4 reflector + CCD.
(M54) Observatoire Albireo de Biot  (N43.617354 E7.077810)  France.
   Observers J.-M. Mari, C. Jasicki. Measurer J.-M. Mari. 0.25-m f/4.5
   reflector + CMO.
(N51) GROWTH India Telescope, IAO, Hanle  (N32.779241 E78.964610)  India.
   Observers K. Sharma, H. Kumar, P. Dorjay, J. Stanzin, V. Bhalerao, G. C.
   Anupama, S. Barway. Measurers K. Sharma, B. T. Bolin. 0.70-m f/6.5
   Corrected Dall-Kirkham + CCD.
(N56) Jiama'erdeng Tianwentai JIST project, Ali, Tibet  (N32.325095
   E80.026750)  China.  Observers T. Chen, D. W. E. Green. 0.3-m f/7.2
   reflector + CCD.
(O18) WFST, Lenghu  (N38.607601 E93.895220).  Observers K. Yan, Z. Q. Li, J.
   Z. Zhu, N. Jiang, Z. Y. Liu. Measurers B. Li, H. B. Zhao, Z. J. Xu, G. T.
   Zhaori. 2.5-m f/2.48 reflector + CCD.
(Q10) Toyokawa Observatory  (N34.843616 E137.329440)  Japan.  Observer M.
   Ishiguro. 0.20-m f/5 reflector + CCD.
(R59) Camarasa Observatory, Astrocamp Nerpio  (N38.165429 W2.326580)  Spain.
(R95) Fiammetta Observatory, La Spezia  (N44.132645 E9.790450)  Italy.
(V21) Cewanee Observatory at DSNM  (N31.946619 W108.897690)  US/New Mexico.
   Observer D. T. Durig. 0.4-m f/8 Ritchey-Chrétien + 4656x3520 CCD.
(X04) MCD Observatory, Saint-Anaclet  (N48.469951 W68.432530).
(Z21) Tenerife-LCO Aqawan A {#}1  (N28.300290 W16.511700)  Canary Islands
   (Spain).  Observers T. Lister, J. Chatelain, E. Gomez, S. Greenstreet.
   Measurer T. Lister. 0.4-m f/8.0 Schmidt-Cassegrain +  CCD.

Orbital elements:  MAd0826
   Perijove 2026 Jun 29.426196 TT = 10:13:43.3 (JD 2461220.926196)
Epoch 2026 Jan 11.0 TT = JDT 2461051.5                           AutoNEOCP
M 224.099516552                     (J2000 ecliptic)
n   0.802122023    Peri.  159.122318
a   0.112957576    Node   177.345329
e   0.62903749     Incl.   24.380513
P   1.229/448.801d H   10.49    G   0.15   q 0.041903025  Q 0.184012127
From 70 observations 2025 Dec. 29-2026 Jan. 11; mean residual 0".00
Residuals in arcseconds: 
251229 O18  .00   .00     260110 B72  .00   .00     260111 Q10  .00   .00     
251229 O18  .00   .00     260110 M54  .00   .00     260111 Q10  .00   .00     
260106 O18  .00   .00     260110 M54  .00   .00     260111 N56  .00   .00     
260106 O18  .00   .00     260110 M38  .00   .00     260111 N56  .00   .00     
260109 O18  .00   .00     260110 M38  .00   .00     260111 N56  .00   .00     
260109 O18  .00   .00     260111 X04  .00   .00     260111 N51  .00   .00     
260110 J95  .00   .00     260111 C82  .00   .00     260111 N51  .00   .00     
260110 J95  .00   .00     260111 Z21  .00   .00     260111 N51  .00   .00     
